Temp
-15 -15 -15 -15 -15 -15 -15 -15 -15 -15 -15 -15 -15 -15 -15 -15 -15 -15 -15 -16 -16 -16 -15 -15 -15 -15 -15 -15 -15 -15 -15 -15 -15 -15 -15 -15 -15 -15 -15 -15 -15 -15
-15 -15 -15 -15 -15 -15 -15 -15 -15 -15 -15 -15 -15 -15 -15 -15 -15 -15 -15 -15 -16 -16 -16 -16 -15 -15 -15 -15 -15 -15 -15 -15 -15 -15 -15 -15 -15 -15 -15 -15 -15 -15
-15 -15 -15 -15 -15 -15 -15 -15 -15 -15 -15 -15 -15 -15 -16 -15 -15 -15 -15 -15 -15 -16 -16 -16 -16 -15 -15 -15 -15 -15 -15 -15 -15 -15 -15 -15 -15 -15 -15 -15 -15 -15
-15 -15 -15 -15 -15 -15 -15 -15 -15 -16 -16 -16 -16 -16 -16 -16 -15 -15 -15 -15 -15 -15 -15 -15 -15 -15 -15 -15 -15 -15 -15 -15 -15 -15 -15 -15 -15 -15 -15 -15 -15 -15
-16 -15 -15 -15 -15 -15 -15 -15 -15 -16 -16 -16 -16 -16 -16 -16 -15 -15 -16 -15 -15 -15 -15 -15 -15 -15 -15 -15 -15 -15 -15 -15 -15 -15 -15 -15 -15 -15 -15 -15 -15 -15
-15 -15 -15 -15 -15 -15 -15 -15 -15 -16 -16 -16 -16 -16 -16 -16 -16 -15 -16 -15 -15 -15 -15 -15 -15 -15 -15 -15 -15 -15 -15 -15 -15 -15 -15 -15 -15 -15 -15 -15 -15 -15
-15 -15 -15 -15 -15 -15 -15 -15 -15 -16 -16 -16 -16 -16 -16 -16 -16 -16 -15 -15 -15 -15 -15 -15 -15 -15 -15 -15 -15 -15 -15 -15 -15 -15 -15 -15 -15 -15 -15 -15 -15 -15
-15 -15 -15 -15 -16 -16 -16 -16 -16 -16 -16 -15 -16 -16 -16 -16 -16 -16 -15 -15 -15 -15 -15 -15 -15 -15 -15 -15 -15 -15 -15 -15 -15 -15 -15 -15 -15 -15 -15 -15 -15 -15
-16 -15 -16 -16 -16 -16 -16 -16 -16 -16 -16 -15 -16 -16 -16 -16 -16 -16 -15 -15 -15 -15 -15 -15 -15 -15 -15 -15 -15 -15 -15 -15 -15 -15 -15 -15 -15 -15 -15 -15 -15 -15
-16 -16 -16 -16 -16 -16 -16 -16 -16 -16 -16 -16 -16 -16 -16 -16 -16 -16 -15 -15 -15 -16 -15 -15 -15 -15 -15 -15 -15 -15 -15 -15 -15 -15 -15 -15 -15 -15 -15 -15 -15 -15
-16 -16 -16 -16 -16 -16 -16 -16 -16 -16 -16 -16 -15 -16 -16 -16 -16 -16 -16 -15 -16 -16 -16 -16 -16 -16 -15 -15 -15 -15 -15 -15 -15 -15 -15 -15 -15 -15 -15 -15 -15 -15
-16 -16 -16 -16 -16 -16 -16 -16 -16 -16 -16 -16 -15 -15 -16 -16 -16 -16 -16 -16 -16 -16 -16 -16 -16 -16 -16 -15 -15 -15 -15 -15 -15 -15 -15 -15 -15 -15 -15 -15 -15 -15
-16 -16 -16 -16 -16 -16 -16 -16 -16 -16 -16 -16 -16 -16 -16 -16 -16 -16 -16 -16 -16 -16 -16 -16 -16 -16 -16 -16 -15 -15 -15 -15 -15 -15 -15 -15 -15 -15 -15 -15 -15 -15
-16 -16 -16 -16 -16 -16 -16 -16 -16 -16 -16 -16 -16 -16 -16 -16 -16 -16 -16 -16 -16 -16 -16 -16 -16 -16 -16 -15 -15 -16 -16 -16 -15 -15 -15 -15 -15 -15 -15 -15 -15 -15
-16 -16 -16 -16 -16 -16 -16 -16 -16 -16 -16 -16 -16 -16 -16 -16 -16 -16 -16 -16 -16 -16 -16 -16 -16 -16 -16 -16 -16 -16 -16 -16 -16 -16 -16 -16 -16 -15 -15 -15 -15 -15
-16 -16 -16 -16 -16 -16 -16 -16 -16 -16 -16 -16 -16 -16 -16 -16 -16 -17 -17 -16 -16 -16 -16 -16 -16 -16 -16 -16 -16 -16 -16 -16 -16 -16 -16 -16 -16 -16 -16 -16 -15 -15
-16 -16 -16 -16 -16 -16 -16 -16 -16 -16 -16 -16 -16 -16 -16 -16 -16 -17 -17 -17 -16 -16 -16 -16 -16 -16 -16 -16 -16 -16 -16 -16 -16 -16 -16 -16 -16 -16 -16 -16 -16 -16
-17 -17 -17 -17 -16 -16 -16 -17 -16 -16 -16 -16 -16 -16 -16 -16 -17 -17 -17 -17 -17 -16 -16 -16 -16 -16 -16 -16 -16 -16 -16 -16 -16 -16 -16 -16 -16 -16 -16 -16 -16 -16
-17 -17 -17 -17 -17 -17 -17 -17 -17 -17 -16 -17 -17 -16 -16 -17 -17 -17 -17 -17 -17 -17 -17 -17 -16 -16 -17 -17 -17 -17 -16 -16 -16 -16 -16 -16 -16 -16 -16 -16 -16 -16
-17 -17 -17 -17 -17 -17 -17 -17 -17 -17 -17 -17 -17 -16 -17 -17 -17 -17 -17 -17 -17 -17 -17 -17 -17 -17 -17 -17 -17 -17 -17 -16 -16 -16 -16 -16 -16 -16 -16 -16 -16 -16
-17 -17 -17 -17 -17 -17 -17 -17 -17 -17 -17 -17 -17 -17 -17 -17 -17 -17 -17 -17 -17 -17 -17 -17 -17 -17 -17 -17 -17 -17 -17 -16 -16 -16 -16 -16 -17 -17 -17 -17 -17 -17
-18 -18 -17 -17 -18 -18 -18 -17 -17 -17 -17 -17 -17 -17 -17 -17 -17 -17 -17 -17 -17 -17 -17 -17 -17 -18 -18 -17 -17 -17 -17 -17 -17 -17 -17 -17 -17 -17 -17 -17 -17 -17
-18 -18 -18 -18 -18 -18 -18 -18 -18 -17 -18 -18 -18 -18 -18 -18 -18 -18 -18 -18 -18 -18 -18 -18 -18 -18 -18 -17 -17 -17 -17 -17 -17 -17 -17 -17 -17 -17 -17 -17 -17 -17
-18 -18 -18 -18 -18 -18 -18 -18 -18 -18 -18 -18 -18 -18 -18 -18 -18 -18 -18 -18 -18 -18 -18 -18 -18 -18 -18 -18 -17 -17 -17 -18 -18 -18 -18 -18 -18 -18 -18 -18 -18 -18
-18 -18 -18 -18 -18 -18 -18 -18 -18 -18 -18 -18 -18 -18 -18 -18 -18 -18 -18 -18 -18 -18 -18 -18 -18 -18 -18 -18 -18 -18 -18 -18 -18 -18 -18 -18 -18 -18 -18 -18 -18 -18
-19 -19 -19 -18 -18 -18 -18 -18 -18 -18 -18 -18 -18 -18 -18 -18 -18 -18 -19 -19 -18 -18 -18 -18 -18 -18 -18 -18 -18 -18 -18 -18 -18 -18 -18 -18 -18 -18 -18 -18 -18 -18
Height
5755 5755 5755 5755 5755 5755 5754 5754 5754 5754 5753 5753 5753 5753 5753 5752 5752 5751 5750 5750 5749 5749 5748 5748 5748 5747 5747 5747 5746 5746 5745 5745 5744 5744 5743 5743 5743 5744 5744 5744 5744 5745
5752 5752 5753 5752 5752 5752 5751 5751 5751 5751 5751 5751 5751 5751 5751 5750 5750 5749 5748 5748 5747 5746 5746 5745 5745 5745 5745 5745 5744 5744 5744 5743 5743 5742 5742 5741 5741 5741 5741 5741 5741 5741
5750 5750 5750 5750 5749 5749 5749 5748 5748 5748 5748 5748 5748 5748 5748 5748 5747 5747 5746 5745 5745 5744 5744 5743 5742 5742 5742 5742 5742 5742 5741 5741 5741 5740 5740 5740 5739 5739 5739 5739 5738 5738
5747 5748 5747 5747 5747 5746 5746 5746 5745 5745 5745 5745 5745 5745 5745 5745 5744 5744 5744 5743 5742 5742 5741 5741 5740 5740 5740 5739 5739 5739 5738 5738 5738 5738 5738 5738 5737 5737 5737 5737 5736 5736
5744 5744 5744 5744 5744 5744 5743 5743 5743 5742 5742 5741 5742 5742 5742 5741 5741 5741 5741 5740 5740 5739 5739 5738 5738 5738 5737 5737 5736 5736 5736 5735 5735 5735 5735 5735 5735 5735 5735 5734 5734 5734
5740 5740 5741 5741 5741 5741 5740 5740 5739 5739 5739 5739 5739 5739 5739 5738 5738 5738 5738 5738 5737 5737 5736 5736 5736 5735 5735 5734 5734 5733 5733 5733 5733 5732 5732 5732 5732 5732 5732 5732 5732 5732
5736 5736 5737 5737 5737 5737 5737 5736 5736 5736 5736 5736 5736 5736 5736 5735 5735 5735 5735 5735 5735 5734 5734 5734 5733 5733 5732 5732 5731 5731 5730 5730 5730 5729 5729 5729 5729 5729 5729 5729 5729 5729
5732 5732 5733 5733 5733 5733 5733 5733 5733 5732 5732 5732 5733 5733 5733 5732 5732 5732 5732 5732 5732 5732 5731 5731 5730 5730 5729 5729 5728 5728 5727 5727 5727 5726 5726 5726 5726 5726 5726 5726 5726 5726
5727 5728 5729 5729 5729 5729 5729 5729 5729 5729 5729 5729 5729 5730 5729 5729 5728 5728 5729 5729 5729 5729 5729 5728 5727 5727 5726 5725 5725 5724 5724 5724 5723 5723 5723 5723 5723 5723 5722 5722 5723 5723
5721 5723 5724 5725 5725 5725 5725 5725 5725 5725 5725 5725 5725 5726 5726 5725 5725 5725 5725 5725 5725 5726 5726 5725 5724 5724 5723 5722 5721 5721 5720 5720 5720 5719 5719 5719 5719 5719 5719 5719 5719 5719
5716 5718 5720 5720 5721 5721 5721 5721 5722 5722 5721 5721 5721 5722 5722 5722 5721 5721 5721 5721 5722 5722 5722 5722 5721 5720 5720 5719 5718 5718 5717 5717 5716 5716 5716 5715 5715 5715 5715 5715 5715 5715
5711 5712 5714 5716 5717 5717 5717 5717 5717 5717 5717 5717 5717 5717 5718 5718 5717 5717 5718 5718 5718 5718 5719 5718 5718 5717 5716 5716 5715 5714 5714 5713 5713 5713 5712 5712 5712 5712 5711 5711 5711 5711
5707 5708 5709 5711 5711 5712 5712 5713 5713 5713 5713 5713 5712 5713 5713 5714 5713 5713 5713 5714 5715 5715 5715 5714 5714 5713 5713 5712 5712 5711 5710 5709 5709 5709 5709 5708 5708 5708 5708 5708 5707 5707
5703 5704 5705 5705 5706 5707 5707 5708 5708 5708 5709 5709 5708 5708 5709 5709 5708 5708 5709 5710 5711 5711 5711 5710 5710 5710 5709 5709 5708 5707 5706 5706 5705 5705 5705 5704 5704 5704 5704 5704 5704 5704
5699 5699 5700 5701 5701 5702 5702 5703 5703 5704 5704 5704 5704 5704 5704 5704 5704 5703 5703 5705 5706 5707 5707 5706 5706 5706 5706 5705 5704 5704 5703 5702 5701 5701 5701 5700 5700 5700 5700 5700 5700 5700
5695 5695 5696 5696 5696 5697 5698 5699 5699 5700 5699 5699 5699 5699 5699 5700 5699 5698 5699 5701 5701 5702 5702 5702 5702 5702 5702 5701 5700 5700 5699 5698 5698 5697 5697 5697 5696 5696 5696 5695 5695 5695
5690 5691 5691 5692 5692 5693 5693 5695 5695 5695 5695 5696 5695 5694 5695 5695 5694 5693 5695 5697 5697 5697 5698 5698 5698 5698 5697 5697 5696 5696 5695 5695 5694 5693 5693 5693 5692 5692 5691 5691 5691 5690
5686 5687 5687 5687 5688 5688 5689 5690 5691 5691 5691 5691 5691 5690 5691 5690 5689 5690 5692 5693 5693 5693 5693 5693 5693 5693 5693 5692 5692 5692 5691 5690 5690 5689 5689 5688 5688 5687 5687 5687 5686 5686
5682 5682 5682 5683 5683 5683 5684 5685 5686 5686 5686 5686 5686 5686 5686 5685 5685 5686 5688 5689 5689 5689 5689 5689 5689 5689 5689 5688 5688 5688 5687 5686 5685 5685 5684 5684 5683 5683 5682 5682 5681 5681
5677 5678 5677 5677 5678 5679 5679 5680 5680 5681 5681 5681 5681 5681 5681 5681 5681 5683 5684 5684 5684 5684 5684 5685 5685 5685 5684 5684 5684 5683 5682 5681 5681 5680 5680 5679 5678 5678 5677 5677 5676 5676
5673 5673 5672 5672 5673 5674 5674 5675 5675 5676 5676 5677 5677 5677 5677 5677 5678 5678 5679 5680 5680 5680 5680 5680 5680 5680 5680 5680 5679 5678 5678 5677 5676 5675 5675 5674 5673 5672 5672 5671 5671 5671
5669 5669 5668 5668 5668 5669 5669 5670 5670 5671 5671 5671 5672 5673 5673 5673 5674 5674 5675 5675 5675 5676 5676 5676 5676 5676 5676 5675 5675 5674 5673 5672 5672 5671 5670 5669 5668 5667 5667 5666 5666 5665
5663 5664 5663 5663 5664 5664 5664 5664 5665 5666 5666 5667 5667 5668 5669 5669 5669 5670 5670 5670 5671 5671 5671 5671 5671 5671 5671 5671 5670 5670 5669 5668 5667 5666 5665 5664 5664 5663 5662 5662 5661 5661
5658 5659 5660 5660 5659 5659 5659 5660 5660 5661 5662 5662 5662 5662 5663 5664 5665 5665 5665 5665 5666 5666 5666 5666 5667 5667 5667 5666 5665 5665 5664 5663 5662 5662 5661 5660 5659 5659 5658 5657 5657 5656
5654 5655 5656 5656 5655 5655 5656 5656 5656 5656 5657 5657 5657 5658 5658 5659 5660 5660 5660 5660 5661 5661 5661 5662 5662 5662 5662 5661 5660 5660 5659 5659 5658 5657 5657 5656 5655 5654 5653 5653 5652 5652
5651 5651 5651 5651 5651 5652 5652 5652 5652 5652 5652 5652 5652 5653 5653 5654 5655 5655 5655 5655 5655 5656 5657 5657 5657 5658 5657 5657 5656 5655 5654 5654 5654 5653 5652 5651 5650 5650 5649 5648 5648 5647
Wind_Speed
25 25 25 25 24 22 20 19 19 18 17 16 16 15 15 16 16 16 16 17 17 17 18 18 18 17 17 17 17 18 18 19 19 19 18 17 17 18 20 21 22 23
27 26 26 26 25 23 21 20 20 20 19 18 17 16 16 17 16 16 16 17 18 18 18 19 19 19 18 18 18 18 18 18 18 18 18 18 18 18 18 19 20 22
29 27 26 26 26 25 23 21 21 21 20 20 19 18 18 18 18 17 17 18 18 18 18 19 19 20 19 19 19 19 19 19 18 18 18 18 18 18 18 18 18 19
31 29 28 27 27 26 24 23 23 22 22 21 20 19 19 19 19 18 18 18 18 18 18 18 19 19 19 20 20 20 20 20 20 20 19 19 19 19 19 19 19 19
32 31 29 28 27 27 25 24 24 24 24 23 21 19 19 20 20 19 18 18 18 17 17 17 17 17 18 19 20 21 21 21 21 21 21 20 20 20 20 20 20 19
33 31 29 29 28 28 27 26 25 26 26 25 22 20 20 21 21 19 19 18 18 17 16 16 16 17 17 19 20 21 21 22 22 22 22 22 22 22 21 21 21 21
34 31 29 29 29 28 28 27 27 27 27 26 24 22 21 22 22 21 19 19 18 17 17 17 17 18 18 19 19 20 21 21 22 23 23 24 23 23 23 22 22 22
35 33 30 29 29 29 29 29 29 28 28 28 27 24 22 23 23 22 21 20 19 18 18 18 19 19 19 20 20 20 20 20 22 23 24 25 25 24 24 23 23 22
37 35 33 31 31 31 31 30 30 29 29 30 29 26 23 23 24 23 22 22 21 20 20 19 20 20 21 21 20 20 20 20 20 22 23 25 25 25 25 24 24 24
40 37 34 33 32 32 32 32 31 30 30 31 31 28 25 25 25 24 24 23 22 21 21 21 21 22 22 21 21 20 20 20 20 21 22 24 25 26 26 25 25 25
43 41 38 35 32 32 32 31 30 31 31 32 32 30 27 26 27 27 26 25 24 23 22 22 23 22 21 20 20 20 20 20 20 20 21 22 24 25 26 26 26 25
36 32 32 30 28 29 29 28 29 31 32 32 32 31 29 28 29 30 28 27 25 24 24 24 24 23 22 21 20 21 20 20 21 21 21 22 23 24 25 26 26 26
30 25 27 28 29 29 30 30 31 32 32 31 31 31 29 29 30 31 30 29 27 25 25 25 25 24 23 22 22 22 22 21 22 22 23 23 23 23 24 25 26 26
32 30 30 32 32 31 30 30 31 31 31 32 33 33 31 30 31 32 31 30 28 26 26 26 25 25 24 25 25 24 23 23 23 24 25 25 25 25 25 25 25 26
35 33 32 32 31 30 29 29 30 31 33 34 35 34 32 30 31 33 33 30 28 27 27 26 26 26 26 27 26 25 24 23 24 25 26 26 27 27 27 27 27 27
36 35 33 32 31 30 29 28 29 32 34 34 33 32 31 30 31 34 34 30 28 28 27 27 26 27 28 28 26 25 25 24 24 25 27 27 28 29 29 30 30 30
36 35 34 33 32 31 31 30 31 33 34 33 33 33 32 31 31 34 33 30 28 28 27 27 28 28 28 27 26 26 26 26 26 27 28 29 29 30 30 31 32 32
35 35 33 33 33 34 35 34 34 36 35 34 34 34 33 32 32 32 30 29 28 28 27 28 28 28 27 26 26 27 27 27 28 29 30 31 32 32 32 32 33 33
36 35 34 34 34 36 37 36 36 37 36 35 35 34 33 33 32 29 27 28 28 27 27 28 29 28 27 27 27 27 28 29 30 31 32 33 34 34 34 34 34 34
36 36 36 36 36 36 37 37 36 36 35 33 33 32 32 32 30 27 27 28 28 28 29 29 29 28 28 28 28 29 30 31 32 33 35 36 37 37 37 37 36 35
34 34 35 35 35 35 35 35 35 35 35 33 31 29 28 29 29 29 29 30 30 31 31 30 29 28 28 29 30 31 32 33 34 35 36 36 36 36 37 37 36 36
32 32 33 34 34 34 34 34 34 34 33 32 31 30 30 30 31 31 31 32 33 33 32 30 29 29 30 31 31 32 33 34 35 35 34 33 33 33 34 34 35 35
31 30 31 32 32 33 34 33 31 30 29 29 30 30 31 32 32 32 32 32 32 31 30 29 29 30 31 31 32 32 33 34 34 33 32 31 32 32 32 32 33 33
31 29 28 28 28 29 30 31 32 32 31 32 33 33 32 32 32 31 30 30 30 30 30 30 30 31 31 31 32 32 32 32 32 31 31 31 32 32 32 32 32 32
31 30 29 28 28 27 26 26 30 32 32 33 34 33 32 31 32 31 31 31 32 31 30 30 31 32 31 31 32 31 31 30 30 31 31 31 32 32 32 32 31 31
33 32 32 32 32 32 28 25 25 26 28 30 30 30 31 32 32 34 34 33 32 31 31 32 32 32 31 32 31 30 30 30 31 31 31 31 32 32 32 31 31 30
Wind_Direction
264 265 266 268 269 268 268 268 269 271 270 267 268 272 279 286 289 290 291 292 294 295 295 293 292 291 290 289 290 293 295 296 296 294 291 287 283 278 274 270 267 265
263 262 263 266 268 268 268 269 270 272 274 273 273 275 279 285 289 289 287 288 290 293 293 293 291 290 289 288 287 286 287 290 291 291 290 288 285 282 279 276 274 271
267 264 263 265 267 268 269 271 272 273 276 278 279 279 281 284 287 287 285 284 287 289 290 290 289 289 288 287 285 283 282 281 283 285 285 284 283 281 280 278 277 276
273 268 264 264 266 268 270 271 273 274 276 279 281 281 280 280 283 285 284 283 284 287 288 287 287 289 289 287 284 281 278 277 277 278 279 279 279 279 278 278 277 276
273 271 267 265 266 268 270 271 273 275 276 278 280 280 276 275 279 282 282 282 283 285 286 286 287 290 291 289 285 280 277 275 275 275 275 275 275 274 274 275 275 276
269 270 268 265 265 266 268 270 271 274 276 278 281 279 274 273 277 280 280 281 283 284 284 285 288 291 292 291 288 284 280 277 274 272 271 271 271 271 271 271 272 273
262 265 264 262 262 264 266 269 271 273 275 277 281 280 276 276 277 278 280 281 282 282 283 285 288 291 291 291 289 286 284 281 277 273 270 268 268 268 268 269 270 271
258 259 259 258 259 262 264 267 270 272 273 276 279 280 277 276 276 277 279 281 280 280 283 286 289 291 292 291 289 287 285 284 281 277 272 268 266 265 265 266 267 268
257 255 256 255 256 259 261 265 269 271 273 275 277 278 275 272 272 274 278 279 277 279 281 284 288 291 292 292 289 287 286 285 283 280 276 272 268 265 264 264 265 265
259 254 254 255 255 257 259 263 267 270 272 273 274 275 273 271 269 271 275 276 274 276 278 281 286 288 289 288 287 286 285 286 285 283 279 275 271 267 265 264 264 265
259 254 251 255 255 254 257 261 266 270 271 273 274 273 272 272 270 270 272 272 272 273 275 280 285 286 285 285 285 285 286 286 286 285 282 279 275 271 268 265 265 265
258 252 248 251 252 253 258 264 269 272 272 272 273 271 270 271 271 271 270 269 269 270 274 281 285 285 284 285 285 286 288 288 288 286 284 281 279 275 272 269 267 266
252 251 251 256 259 261 265 268 271 274 274 273 272 270 268 268 269 270 269 267 266 267 273 280 283 283 284 286 287 287 288 289 289 287 285 283 281 279 276 273 270 268
254 258 263 266 268 268 268 269 272 275 275 274 271 270 268 265 265 265 265 264 263 265 271 277 278 280 284 287 287 287 288 289 290 288 285 283 281 280 279 277 274 272
261 264 266 267 267 268 269 270 271 274 274 273 271 269 267 266 263 260 260 260 258 262 270 273 275 279 283 285 286 287 288 290 290 289 287 285 283 281 280 278 277 275
262 263 264 264 265 265 267 270 271 272 271 270 269 269 268 268 263 256 255 254 255 261 268 270 272 278 282 284 285 287 289 290 290 290 288 286 285 283 281 279 278 277
262 262 262 262 262 263 265 268 270 270 269 269 269 269 269 269 261 253 249 250 254 262 266 267 272 278 280 282 284 286 288 290 291 291 290 288 287 284 283 280 278 277
259 259 259 259 260 262 265 267 268 269 270 271 270 270 271 268 259 249 246 249 255 260 264 269 274 277 278 280 283 285 288 290 291 291 290 289 288 286 285 282 280 278
259 257 259 261 262 263 266 267 267 267 268 269 270 271 268 261 254 249 248 252 256 260 266 271 274 274 276 280 283 286 289 290 291 291 290 289 288 286 284 283 281 279
261 260 261 263 263 264 264 263 262 261 262 264 267 268 261 251 249 250 253 256 259 264 268 270 270 271 275 280 284 288 290 292 292 291 290 288 286 285 283 282 280 279
264 265 264 263 262 263 263 261 259 258 259 261 262 261 256 251 252 256 258 260 263 266 267 267 267 271 276 281 286 289 291 292 292 291 289 288 286 285 284 282 281 279
267 267 266 263 261 261 262 261 260 258 256 256 256 255 253 252 254 256 259 262 264 265 265 265 268 273 278 283 287 289 291 292 291 290 288 287 287 286 286 285 284 282
267 267 268 266 263 261 260 257 255 252 251 252 254 252 251 252 254 256 259 262 263 263 264 266 271 276 280 284 287 289 291 291 290 288 287 286 287 287 286 286 285 284
268 266 267 266 263 260 258 254 249 248 250 253 255 254 254 254 254 256 260 262 263 263 265 268 274 278 281 284 288 290 291 289 288 287 286 286 286 286 286 286 285 285
271 268 266 264 260 257 258 255 252 251 252 252 254 256 256 256 257 260 264 266 265 265 267 271 275 278 281 285 289 289 288 287 286 286 287 287 286 285 285 285 284 284
272 271 270 267 262 259 258 253 249 248 248 248 250 252 253 256 262 265 266 266 265 265 269 273 276 279 282 286 287 286 285 286 286 287 287 287 285 284 284 283 283 283